sat.trackr.live / text

‹ back to catalog

STARLINK-4569

NORAD 53687 · 2022-105AR

PAYLOAD ACTIVE UNKNOWN

§ Identity

Operator
Country
US
Launch date
2022-08-31
Launch site
AFWTR
Launch vehicle
Mass (kg)
RCS (m²)

Purposes: comms

External: N2YO · Heavens-Above · Gunter

§ Orbital elements

Epoch: 2026-05-25T03:06:52.979040Z

Period
95.64 min
Inclination
97.4501°
Eccentricity
0.0001994
Mean motion
15.05656601 rev/d
Perigee alt
548.1 km
Apogee alt
550.9 km
Semi-major
6,927.6 km
B*
-3.1397e-5
RAAN
26.1370°
Arg perigee
84.7567°
Mean anomaly
275.3887°
Rev number
20,480

§ Raw data

STARLINK-45691 53687U 22105AR  26145.12977985 -.00000512  00000+0 -31397-4 0  99912 53687  97.4501  26.1370 0001994  84.7567 275.3887 15.05656601204805

JSON: /api/v1/satellites/53687 · /tle

For live sub-satellite position, see the globe view (requires WebGL).

§ Visibility from observer

Set your observer location to see the next 7 days of passes ≥ 10°. The values pass through the URL so the page stays shareable.

No JS? Fill the form by hand. The geolocation button needs JavaScript.